Find Starlink 30507

NORAD ID: 57982 Int'l Des: 2023-151 Owner: SPXS Country: US Constellation: starlink operational
LEOCIRCULAR

Live Position

Loading 3D Globe...

About Starlink 30507

Description loading...

Upcoming Passes

Passes for default location (London). Set your location on the main map for personalized predictions.

Altitude History

Loading altitude history...

Two-Line Element Set

1 57982U 23151U 26123.47586487 .00004369 00000-0 16813-3 0 9990
2 57982 43.0021 44.5606 0001294 272.1077 87.9626 15.27592008143926
Epoch: May 3, 2026 • Age: 8 hours

Current Status

Altitude 489.1 km
Velocity 7.62 km/s
Sub-Earth Point -26.65°S, 137.63°W
Launch Date Sep 30, 2023
Age 2.5 years
Type internet

Technical Details

Classification Payload
Mass 730.00 kg
Dry Mass 700.00 kg
Total Mass 730.00 kg
Length 0.30 m
Diameter 4.10 m
Span 29.00 m
Shape Box + pan
Manufacturer SPXS
Bus Type Starlink V2M
Phase Status In Orbit
Owner/State SPXS/US

Most Searched